Regional Weather Roundup
Issued by NWS

Home | Current Version | Previous Version | Text Only | Print | Product List | Glossary Off
Versions: 1 2 3 4 5 6 7 8 9 10 11 12 13 14 15 16 17 18 19 20 21 22 23 24 25 26 27 28 29 30 31 32 33 34 35 36 37 38 39 40 41 42 43 44 45 46 47 48 49 50

000
ASUS43 KLSX 061107
RWRMO

WEATHER SUMMARY FOR MISSOURI
NATIONAL WEATHER SERVICE SPRINGFIELD MO
500 AM CST FRI MAR 06 2015

NOTE: "FAIR" INDICATES FEW OR NO CLOUDS BELOW 12,000 FEET WITH NO
       SIGNIFICANT WEATHER AND/OR OBSTRUCTIONS TO VISIBILITY.
       CURRENT SKY AND/OR WEATHER CONDITIONS ARE NOT AVAILABLE FOR
       CHILLICOTHE AND FARMINGTON.

MOZ001>031-035>038-043-044-053-054-061200-
...NORTHERN AND WESTERN MISSOURI...

CITY           SKY/WX    TMP DP  RH WIND       PRES   REMARKS
KANSAS CTY INT CLEAR     27  17  66 S17G26    30.30F WCI  14
KANSAS C DTWN  CLEAR     30  16  56 S14       30.34F WCI  19
LEE`S SUMMIT   CLEAR     24  15  68 S12       30.34F WCI  13
ST JOSEPH      CLEAR     27  17  66 S15       30.29F WCI  15
CHILLICOTHE      N/A     23  11  60 S9        30.36F WCI  13
KIRKSVILLE     CLEAR     18  11  74 S12       30.37F WCI   5

$$
MOZ066>068-077>081-088>096-101>105-061200-
...SOUTHWEST MISSOURI...

CITY           SKY/WX    TMP DP  RH WIND       PRES   REMARKS
SPRINGFIELD    CLEAR     21  12  68 S13       30.45S WCI   9
JOPLIN         CLEAR     28  16  60 S13       30.46S WCI  17

$$
MOZ032>034-039>042-045>050-055>058-069>072-061200-
...CENTRAL MISSOURI...

CITY           SKY/WX    TMP DP  RH WIND       PRES   REMARKS
COLUMBIA       CLEAR     17   9  70 S12       30.44F WCI   4
JEFFERSON CITY CLEAR     16   9  74 E7        30.49F WCI   6
ROLLA          CLEAR     19   8  62 S10       30.45S WCI   7
SEDALIA        CLEAR     25  12  58 S12       30.41F WCI  14
WHITEMAN AFB   CLEAR     22  13  70 S13       30.38F WCI   9
WARRENSBURG    CLEAR     27  16  63 S12G18    30.38F WCI  16
OSAGE BEACH    CLEAR     18   9  68 SE6       30.45F WCI   9

$$
MOZ051-052-059>065-061200-
...EAST CENTRAL MISSOURI...

CITY           SKY/WX    TMP DP  RH WIND       PRES   REMARKS
ST LOUIS INTL  PTCLDY    17   6  62 S8        30.53S WCI   7
SPIRIT OF STL  CLEAR     15   6  67 CALM      30.52F
ST CHARLES     CLEAR      8   4  83 E7        30.54R WCI  -3

$$
MOZ072>076-082>087-097>100-106>115-061200-
...SOUTH CENTRAL AND SOUTHEAST MISSOURI...

CITY           SKY/WX    TMP DP  RH WIND       PRES   REMARKS
CAPE GIRARDEAU PTCLDY     0  -4  83 CALM      30.59S
FARMINGTON     PTCLDY     9   7  92 SE3       30.54R
POPLAR BLUFF   PTCLDY    11   6  81 CALM      30.59R
WEST PLAINS    CLEAR     14   7  73 S3        30.51R

$$


USA.gov is the U.S. government's official web portal to all federal, state and local government web resources and services.